{"data":{"norad_id":59075,"intl_designator":"2024-041B","name":"STARLINK-31276","alt_names":[],"object_type":"PAYLOAD","status":"ACTIVE","operator":null,"country":"US","launch_date":"2024-02-29","launch_site_code":"AFETR","launch_vehicle":null,"mission":null,"orbit_class":"UNKNOWN","rcs_meters":null,"size_class":null,"mass_kg":null,"dimensions":null,"purposes":["comms"],"wikipedia_slug":null,"has_3d_model":false,"image_url":null,"decayed_at":null,"tle_current":{"epoch":"2026-05-24T23:28:23.907072Z","epoch_age_seconds":70891,"freshness":"FRESH","line1":"1 59075U 24041B   26144.97805448  .00004904  00000+0  18756-3 0  9995","line2":"2 59075  42.9982 239.4619 0000347 279.5246  80.5566 15.27584071125991","mean_motion":15.27584071,"eccentricity":3.47e-5,"inclination_deg":42.9982,"raan_deg":239.4619,"arg_perigee_deg":279.5246,"mean_anomaly_deg":80.5566,"bstar":0.00018756,"rev_number":12599,"period_min":94.266497493479,"perigee_km":482.79882329365,"apogee_km":483.27498876273,"semimajor_km":6861.1739060282,"source":"CELESTRAK","updated_at":"2026-05-25T13:38:18.827620Z"}}}